Погода в Бору

Россия / Санкт-Петербург и Ленинградская область     60°28′28″N   34°18′59″E
темп.,
°C
ветер,
м/с
пор.,
м/с
влажн.,
%
обл.,
%
осадки,
мм/ч
давл.,
гПа
погр.,
м
3 августа, вт
вт300:00+16вюв51495100 3.1 994539
03:00+17юв41197100 3.4 991787
06:00+16юз51198100 2.2 9911018
09:00+14юз61398100 4.6 9951209
12:00+16юз714899 0.8 9981334
15:00+19юз512686 2.6 10001622
18:00+17юз611705 0.8 10011326
21:00+13зюз4119512 2.2 1003699
4 августа, ср
ср400:00+11зюз3109858 0.1 1006625
03:00+10зюз4119632 0.1 1008610
06:00+9юз39951 0.0 1010312
09:00+14зюз58650 0.0 1011949
12:00+19з58345 0.0 10122190
15:00+20з57325 0.0 10132445
18:00+19з36375 0.0 10142319
21:00+12з226238 0.0 101513
5 августа, чт
чт500:00+12юз227099 0.0 101657
03:00+12юз1274100 0.0 101743
06:00+12юз117690 0.0 101834
09:00+15юз1165100 0.0 1019256
12:00+20с11406 0.0 10181668
15:00+21с1233100 0.0 10182410
18:00+19ссв2343100 0.0 1018909
21:00+14всв3865100 0.0 1018195
6 августа, пт
пт600:00+12всв2670100 0.0 1018127
03:00+10в267516 0.0 1018101
06:00+12всв276956 0.0 1018169
09:00+18в36497 0.0 1017650
12:00+21в453353 0.0 10172545
15:00+22всв463313 0.0 10162412
18:00+19св594499 0.0 1016771
21:00+15всв31062100 0.0 1016336
7 августа, сб
сб700:00+12всв3107796 0.0 1017238
03:00+11в3128650 0.0 1017332
06:00+12в41479100 0.0 1016553
09:00+16в51358100 0.0 10151043
12:00+20в61247100 0.0 10141443
15:00+15всв41280100 0.9 1014495
18:00+17в41064100 0.3 1013962
21:00+15в51387100 0.8 1013885